User: anonymous   Login
Location: Wayah Bald
(35.1806°N, 83.5603°W)
Time: 16:19:28
(UTC-04:00)
Language:

Meteor 1-27 Rocket - Orbit

View from above orbital plane
View from above orbital plane
View from above satellite
View from above satellite

Ground track
Ground track

The orbit data is extracted from the following two-line orbital elements,

1 09904U 77024B   16147.49534461 -.00000071  00000-0 -49339-4 0  9999
2 09904  81.2594 143.4916 0054536 339.1080  20.7860 14.06821141  8434
Epoch (UTC): 26 May 2016 11:53:17
Eccentricity: 0.0054536
inclination: 81.2594°
perigee height: 831 km
apogee height: 910 km
right ascension of ascending node: 143.4916°
argument of perigee: 339.1080°
revolutions per day: 14.06821141
mean anomaly at epoch: 20.7860°
orbit number at epoch: 843

The dashed part of the orbit path shows where the satellite is in the earth's shadow,  

DLR